TimeEST,TemperatureF,Dew PointF,Humidity,Sea Level PressureIn,VisibilityMPH,Wind Direction,Wind SpeedMPH,Gust SpeedMPH,PrecipitationIn,Events,Conditions,WindDirDegrees,DateUTC
12:15 AM,32.0,32.0,100,30.02,4.0,ENE,4.6,-,0.02,Rain,Light Rain,70,2013-01-16 05:15:00
12:35 AM,33.8,32.0,93,30.02,4.0,ENE,4.6,-,0.04,Rain,Light Rain,70,2013-01-16 05:35:00
1:15 AM,33.8,32.0,93,30.02,3.0,NNE,4.6,-,0.03,Rain,Light Rain,30,2013-01-16 06:15:00
1:55 AM,33.8,32.0,93,30.01,10.0,NNE,4.6,-,0.03,,Overcast,30,2013-01-16 06:55:00
2:35 AM,32.0,32.0,100,29.98,10.0,NNE,6.9,-,N/A,,Overcast,30,2013-01-16 07:35:00
2:55 AM,33.8,32.0,93,29.99,10.0,NNE,8.1,-,N/A,,Overcast,20,2013-01-16 07:55:00
3:15 AM,33.8,32.0,93,29.98,10.0,NNE,8.1,-,N/A,,Overcast,20,2013-01-16 08:15:00
3:35 AM,33.8,32.0,93,29.98,10.0,NE,3.5,-,N/A,,Overcast,40,2013-01-16 08:35:00
3:55 AM,33.8,32.0,93,29.97,10.0,NNE,4.6,-,N/A,,Drizzle,30,2013-01-16 08:55:00
4:15 AM,33.8,32.0,93,29.97,5.0,NNE,5.8,-,0.01,Rain,Rain,30,2013-01-16 09:15:00
4:35 AM,33.8,32.0,93,29.96,4.0,NE,4.6,-,0.01,Rain,Rain,40,2013-01-16 09:35:00
4:55 AM,33.8,32.0,93,29.95,5.0,NE,4.6,-,0.02,Rain,Rain,50,2013-01-16 09:55:00
5:15 AM,33.8,32.0,93,29.96,5.0,NNE,5.8,-,0.01,Rain,Rain,20,2013-01-16 10:15:00
5:35 AM,33.8,32.0,93,29.95,4.0,ENE,3.5,-,0.03,Rain,Light Rain,60,2013-01-16 10:35:00
5:55 AM,33.8,32.0,93,29.93,7.0,NNE,5.8,-,0.03,,Drizzle,30,2013-01-16 10:55:00
6:15 AM,33.8,32.0,93,29.94,5.0,Calm,Calm,-,N/A,Rain,Light Rain,0,2013-01-16 11:15:00
6:55 AM,33.8,32.0,93,29.95,2.5,Calm,Calm,-,0.05,Rain,Light Rain,0,2013-01-16 11:55:00
7:15 AM,33.8,32.0,93,29.95,3.0,NNE,5.8,-,0.01,Rain,Rain,20,2013-01-16 12:15:00
7:35 AM,33.8,32.0,93,29.97,7.0,North,3.5,-,0.02,Rain,Light Rain,0,2013-01-16 12:35:00
7:55 AM,33.8,32.0,93,29.97,4.0,North,4.6,-,0.03,Rain,Light Rain,10,2013-01-16 12:55:00
8:15 AM,33.8,32.0,93,30.02,3.0,NNW,6.9,-,0.01,Rain,Heavy Rain,330,2013-01-16 13:15:00
8:35 AM,33.8,32.0,93,30.03,4.0,Calm,Calm,-,0.06,Rain,Light Rain,0,2013-01-16 13:35:00
8:55 AM,33.8,33.8,100,30.03,1.8,South,3.5,-,0.08,Rain,Light Rain,170,2013-01-16 13:55:00
9:15 AM,33.8,33.8,100,30.03,7.0,South,3.5,-,N/A,Rain,Light Rain,190,2013-01-16 14:15:00
9:35 AM,35.6,33.8,93,30.03,7.0,South,4.6,-,0.01,Rain,Light Rain,180,2013-01-16 14:35:00
9:55 AM,35.6,33.8,93,30.01,7.0,South,3.5,-,0.01,Rain,Light Rain,190,2013-01-16 14:55:00
10:15 AM,35.6,33.8,93,30.00,10.0,Calm,Calm,-,N/A,,Light Drizzle,0,2013-01-16 15:15:00
10:35 AM,35.6,35.6,100,29.97,10.0,Calm,Calm,-,N/A,Rain,Light Rain,0,2013-01-16 15:35:00
10:55 AM,35.6,35.6,100,29.95,10.0,SW,4.6,-,N/A,,Overcast,230,2013-01-16 15:55:00
11:15 AM,37.4,35.6,93,29.93,10.0,Calm,Calm,-,N/A,,Overcast,0,2013-01-16 16:15:00
11:35 AM,37.4,35.6,93,29.92,10.0,Calm,Calm,-,N/A,,Overcast,0,2013-01-16 16:35:00
11:55 AM,37.4,35.6,93,29.91,10.0,North,3.5,-,N/A,,Overcast,10,2013-01-16 16:55:00
12:15 PM,37.4,35.6,93,29.90,10.0,Calm,Calm,-,N/A,Rain,Light Rain,0,2013-01-16 17:15:00
12:35 PM,37.4,35.6,93,29.90,10.0,North,3.5,-,N/A,,Overcast,0,2013-01-16 17:35:00
12:55 PM,37.4,35.6,93,29.91,10.0,NNW,4.6,-,N/A,,Overcast,330,2013-01-16 17:55:00
1:15 PM,37.4,35.6,93,29.89,10.0,Calm,Calm,-,N/A,,Overcast,0,2013-01-16 18:15:00
1:35 PM,39.2,37.4,93,29.89,10.0,South,3.5,-,N/A,,Overcast,170,2013-01-16 18:35:00
1:55 PM,39.2,37.4,93,29.91,7.0,WSW,3.5,-,N/A,,Light Drizzle,250,2013-01-16 18:55:00
2:15 PM,39.2,37.4,93,29.91,7.0,Calm,Calm,-,N/A,Rain,Light Rain,0,2013-01-16 19:15:00
2:55 PM,37.4,35.6,93,29.93,10.0,WNW,9.2,-,N/A,,Light Drizzle,290,2013-01-16 19:55:00
3:15 PM,35.6,33.8,93,29.93,10.0,WNW,6.9,-,N/A,,Overcast,290,2013-01-16 20:15:00
3:55 PM,35.6,33.8,93,29.95,10.0,NW,11.5,-,0.01,Rain,Light Rain,320,2013-01-16 20:55:00
4:15 PM,33.8,32.0,93,29.97,10.0,WNW,6.9,-,N/A,Rain,Light Rain,300,2013-01-16 21:15:00
4:35 PM,35.6,32.0,87,29.98,10.0,SW,3.5,-,N/A,,Overcast,230,2013-01-16 21:35:00
4:55 PM,35.6,32.0,87,29.97,10.0,West,8.1,-,N/A,,Light Drizzle,270,2013-01-16 21:55:00
5:15 PM,35.6,32.0,87,29.98,10.0,West,6.9,-,0.01,Rain,Light Rain,270,2013-01-16 22:15:00
5:35 PM,33.8,32.0,93,29.99,10.0,West,6.9,-,0.01,,Light Drizzle,260,2013-01-16 22:35:00
5:55 PM,33.8,32.0,93,30.00,10.0,West,6.9,-,0.01,,Light Drizzle,260,2013-01-16 22:55:00
6:35 PM,33.8,32.0,93,30.03,10.0,SW,6.9,-,N/A,,Overcast,230,2013-01-16 23:35:00
6:55 PM,33.8,32.0,93,30.02,10.0,WSW,6.9,-,0.01,Rain,Rain,240,2013-01-16 23:55:00
7:15 PM,33.8,32.0,93,30.03,10.0,SW,6.9,-,N/A,,Overcast,230,2013-01-17 00:15:00
7:35 PM,33.8,32.0,93,30.03,10.0,WSW,5.8,-,N/A,,Overcast,250,2013-01-17 00:35:00
7:55 PM,33.8,32.0,93,30.03,10.0,West,5.8,-,N/A,,Overcast,260,2013-01-17 00:55:00
8:15 PM,33.8,32.0,93,30.03,10.0,West,4.6,-,N/A,,Overcast,260,2013-01-17 01:15:00
8:35 PM,33.8,32.0,93,30.02,10.0,WSW,4.6,-,N/A,,Overcast,250,2013-01-17 01:35:00
8:55 PM,33.8,32.0,93,30.02,10.0,West,4.6,-,N/A,,Overcast,270,2013-01-17 01:55:00
9:15 PM,33.8,32.0,93,30.04,10.0,West,3.5,-,N/A,,Overcast,260,2013-01-17 02:15:00
9:55 PM,33.8,32.0,93,30.02,10.0,WSW,4.6,-,N/A,,Light Drizzle,240,2013-01-17 02:55:00
10:15 PM,33.8,32.0,93,30.01,10.0,WSW,4.6,-,N/A,,Overcast,250,2013-01-17 03:15:00
10:35 PM,33.8,32.0,93,30.01,10.0,SW,5.8,-,N/A,,Overcast,220,2013-01-17 03:35:00
10:55 PM,33.8,32.0,93,30.02,10.0,SW,4.6,-,N/A,,Overcast,230,2013-01-17 03:55:00
11:15 PM,33.8,32.0,93,30.01,10.0,SW,4.6,-,N/A,,Overcast,220,2013-01-17 04:15:00
11:35 PM,33.8,32.0,93,30.02,10.0,WSW,5.8,-,N/A,,Overcast,240,2013-01-17 04:35:00
11:55 PM,33.8,32.0,93,30.03,10.0,WSW,6.9,-,N/A,,Light Drizzle,240,2013-01-17 04:55:00